Tracking 28790 objects as of 19-Apr-2024
HD Live streaming from Space Station
objects crossing your sky now

FENGYUN 1C DEB

Track FENGYUN 1C DEB now!
10-day predictions


NORAD ID: 29781
Int'l Code: 1999-025BX
Perigee: 836.1 km
Apogee: 946.5 km
Inclination: 98.8 °
Period: 102.7 minutes
Semi major axis: 7262 km
RCS: 0.0131 m2 (small)
Launch date: May 10, 1999
Source: People's Republic of China (PRC)
Launch site: Taiyaun Space Center, China (TSC)

Note: This is SATELLITE DEBRIS
Your satellite tracking list
Your tracking list is empty




NASA's NSSDC Master Catalog

Two Line Element Set (TLE):
1 29781U 99025BX  24109.85598590  .00003034  00000-0  19388-2 0  9998
2 29781  98.7928 116.8190 0075980  61.8034  58.0764 14.02782122881825
Source of the keplerian elements: AFSPC